User: anonymous   Login
Location: Unspecified
(0.0000°N, 0.0000°E)
Time: 02:42:11
(UTC+00:00)
Language:

GALILEO 7 (263) - Orbit

View from above orbital plane
View from above orbital plane
View from above satellite
View from above satellite

Ground track
Ground track

The orbit data is extracted from the following two-line orbital elements,

1 40544U 15017A   19052.73300240 -.00000044 +00000-0 +00000-0 0  9996
2 40544 056.0880 054.7816 0005383 268.3939 091.5636 01.70475027023644
Epoch (UTC): 21 February 2019 17:35:31
Eccentricity: 0.0005383
inclination: 56.0880°
perigee height: 23206 km
apogee height: 23238 km
right ascension of ascending node: 54.7816°
argument of perigee: 268.3939°
revolutions per day: 1.70475027
mean anomaly at epoch: 91.5636°
orbit number at epoch: 2364

The dashed part of the orbit path shows where the satellite is in the earth's shadow,  

DLR